Regional Weather Roundup
Issued by NWS

Home | Current Version | Previous Version | Graphics & Text | Print | Product List | Glossary On
Versions: 1 2 3 4 5 6 7 8 9 10 11 12 13 14 15 16 17 18 19 20 21 22 23 24 25 26 27 28 29 30 31 32 33 34 35 36 37 38 39 40 41 42 43 44 45 46 47 48 49 50
922
ASUS43 KMKX 270311
RWRWI

WISCONSIN REGIONAL WEATHER ROUNDUP
NATIONAL WEATHER SERVICE MILWAUKEE/SULLIVAN WI
1000 PM CDT THU MAY 26 2016

NOTE: "FAIR" INDICATES FEW OR NO CLOUDS BELOW 12,000 FEET WITH NO
SIGNIFICANT WEATHER AND/OR OBSTRUCTIONS TO VISIBILITY.

WIZ001-002-006>008-014>016-023>028-270400-
NORTHWEST WISCONSIN

CITY           SKY/WX    TMP DP  RH WIND       PRES   REMARKS
SUPERIOR ARPT  FOG       47  47 100 CALM      29.84F VSB 1/2
ASHLAND        FOG       51  51 100 NE5       29.84S VSB 1/4
HAYWARD        PTCLDY    62  54  74 CALM      29.84R
SIREN          CLOUDY    62  52  71 CALM      29.84S
CUMBERLAND     CLOUDY    64  52  63 W3        29.85S
RICE LAKE      CLOUDY    65  58  79 CALM      29.86S
CHETEK         CLOUDY    64  55  75 CALM      29.85S
LADYSMITH      CLOUDY    65  56  72 S3        29.87F
EAU CLAIRE     PTCLDY    68  55  63 S3        29.84F
MENOMONIE      CLOUDY    69  52  54 CALM      29.84F
NEW RICHMOND   CLOUDY    65  54  67 CALM      29.84S
OSCEOLA        MOCLDY    66  57  72 CALM      29.86S
$$

WIZ003>005-009-010-017-018-270400-
NORTH CENTRAL WISCONSIN

CITY           SKY/WX    TMP DP  RH WIND       PRES   REMARKS
MANITOWISH WTR NOT AVBL
ARBOR VITAE    CLOUDY    62  59  91 CALM      29.87R
WOODRUFF       CLOUDY    62  59  91 CALM      29.87R
RHINELANDER    PTCLDY    62  56  80 S3        29.89R
EAGLE RIVER      N/A     61  60  96 CALM      29.88R
LAND O LAKES   CLOUDY    61  61  98 CALM      29.89R
PHILLIPS       MOCLDY    64  59  82 CALM      29.86R
TOMAHAWK       CLOUDY    59  57  92 CALM      29.88S
MEDFORD        CLOUDY    67  56  67 SW6       29.87F
MERRILL        MOCLDY    62  61  96 CALM      29.88S
$$

WIZ029-030-035-036-043>047-270400-
CENTRAL WISCONSIN

CITY           SKY/WX    TMP DP  RH WIND       PRES   REMARKS
WAUSAU         PTCLDY    67  61  81 CALM      29.86R
MOSINEE        CLEAR     64  61  88 CALM      29.89R
MARSHFIELD     PTCLDY    68  58  70 S5        29.87R
STEVENS POINT  CLEAR     61  59  93 CALM      29.89R
WAUPACA        PTCLDY    67  64  89 CALM      29.88S
WAUTOMA        PTCLDY    65  62  90 CALM      29.88S
WISC RAPIDS    PTCLDY    63  58  83 CALM      29.89R
CAMP DOUGLAS   MOCLDY    63  63 100 CALM      29.88R
$$

WIZ011>013-019>022-031-037>040-048>050-270400-
NORTHEAST WISCONSIN

CITY           SKY/WX    TMP DP  RH WIND       PRES   REMARKS
ANTIGO         CLOUDY    60  58  92 CALM      29.90R
SHAWANO        CLEAR     66  58  77 CALM      29.88R
OCONTO           N/A    N/A N/A N/A CALM      29.88R
STURGEON BAY   NOT AVBL
GREEN BAY      CLOUDY    66  60  81 CALM      29.88R
MANITOWOC      PTCLDY    59  56  89 CALM      29.89R
APPLETON       MOCLDY    70  55  60 CALM      29.87R
CLINTONVILLE   CLEAR     63  57  82 CALM      29.87S
OSHKOSH        PTCLDY    64  58  80 CALM      29.87R
$$

WIZ032>034-041-042-053>061-270400-
SOUTHWEST WISCONSIN

CITY           SKY/WX    TMP DP  RH WIND       PRES   REMARKS
LA CROSSE      PTCLDY    70  61  73 E5        29.84F
SPARTA         PTCLDY    63  61  92 CALM      29.88R
VIROQUA        PTCLDY    70  60  70 SE3       29.89R
BOSCOBEL       MOCLDY    69  64  84 CALM      29.87R
PRAIRIE DU CHI CLOUDY    69  63  83 CALM      29.86S
PLATTEVILLE    CLOUDY    73  57  57 CALM      29.89R
$$

WIZ056-057-062-063-064-067-068-270400-
SOUTH CENTRAL WISCONSIN

CITY           SKY/WX    TMP DP  RH WIND       PRES   REMARKS
REEDSBURG      CLOUDY    66  62  85 CALM      29.88R
BARABOO/DELLS  CLOUDY    67  60  80 CALM      29.89R
LONE ROCK      CLOUDY    69  60  73 SW5       29.87S
MINERAL POINT  CLOUDY    72  54  53 N3        29.89R
MADISON        CLOUDY    67  57  70 CALM      29.88R
MIDDLETON      CLOUDY    67  58  75 CALM      29.89R
WATERTOWN      CLOUDY    67  62  83 CALM      29.87F
MONROE         CLOUDY    73  54  49 CALM      29.89R
JANESVILLE     NOT AVBL
$$

WIZ051-052-058>065-066-070>072-270400-
SOUTHEAST WISCONSIN

CITY           SKY/WX    TMP DP  RH WIND       PRES   REMARKS
MILWAUKEE      PTCLDY    70  60  70 CALM      29.89R
WAUKESHA       CLOUDY    66  55  68 CALM      29.90S
MILWAUKEE/TIMM CLOUDY    72  54  53 CALM      29.88F
RACINE         PTCLDY    70  60  70 S3        29.91R
BURLINGTON     CLOUDY    66  60  80 CALM      29.89F
KENOSHA        CLOUDY    72  63  73 SE3       29.90R
FOND DU LAC    PTCLDY    65  59  81 CALM      29.88R
SHEBOYGAN      PTCLDY    64  59  83 CALM      29.89R
WEST BEND      PTCLDY    64  61  88 CALM      29.89S
JUNEAU         HAZE      68  59  73 CALM      29.89F VSB 1/2
$$

LSZ147-162-270400-
LAKE SUPERIOR

STATION/POSITION TIME  TEMP    WIND        PRES    WAVE
                       AIR SEA DIR/SP/G            HT/PER
                 (UTC) (F)     (DEG/KT/KT) (MB)    (FT/S)
W MID LAKE BUOY  0250   40 38  300/  2/  4 1011.3R   1/ 5
DEVILS ISLAND    0300   46      80/  3/  3 1011.0R
PORT WING        0100   47     300/  5/  6 1010.2R
SAXON HARBOR     0200   50      20/  2/  2 1010.2R
$$

LMZ867-665-643>646-270400-
LAKE MICHIGAN

STATION/POSITION TIME  TEMP    WIND        PRES    WAVE
                       AIR SEA DIR/SP/G            HT/PER
                 (UTC) (F)     (DEG/KT/KT) (MB)    (FT/S)
CHAMBERS ISLAND  0200   62     130/  3/  4 1011.9R
N MID LAKE BUOY  0250   48 45  190/  4/  6 1011.8R   2/ 5
NORTHPORT PIER   0200   61     180/  3/  5 1011.5R
SISTER BAY       0220   60     160/  7/  9   N/A
ALGOMA LAKESHORE 0202             CALM       N/A
KEWAUNEE LAKESHO 0200                      1011.0R
SHEBOYGAN LAKESH 0300   59     200/  7/  8 1012.3R
PORT WASHINGTON  0200   60      CALM  /  3 1012.5R
S MID LAKE BUOY  0250   57 50  150/  8/  8 1012.5R   0
KENOSHA   LAKESH 0300   66     170/  8/  8 1011.9S
$$

TC  - TEMPERATURE IN CELSIUS
VSB - VISIBILITY IN STATUTE MILES
WCI - WIND CHILL INDEX
HX  - HEAT INDEX





USA.gov is the U.S. government's official web portal to all federal, state and local government web resources and services.